Location: Napier
(39.4830°S, 176.9170°E)
Time: 05:59:18
(UTC+13:00)

Cosmos 2360 Rocket - Pass Details

Date: 24 January 2019
Orbit: 834 x 845 km, 71.0° (Epoch: 18 February)

Event Time Altitude Azimuth Distance (km) Brightness Sun altitude
Exits shadow 21:02:03 - 37° (NE) 3,050 4.5 -5.3°
Reaches altitude 10° 21:04:37 10° 56° (NE) 2,475 3.9 -5.7°
Maximum altitude 21:07:13 13° 83° (E) 2,249 3.9 -6.1°
Drops below altitude 10° 21:09:49 10° 111° (ESE) 2,489 4.3 -6.6°
Sets 21:13:38 0° 136° (SE) 3,433 5.2 -7.2°
